Wind_Speed
30 29 26 24 24 23 21 20 19 18 16 14 13 12 12 12 12 14 16 19 20 21 21 20 17 15 15 14 14 13 11 11 12 12 14 15 15 14 13 13 12 14 14 11 11 12 12 13 13 14 14 13 13 14 14 13 13 15 18 20 20 19 19 18 18 18 17 17 16 17 17 16 17 18 18 18 17 16 16 17 17 16 16 17 17
32 29 27 26 24 22 21 20 19 18 16 15 13 12 12 13 13 14 16 18 19 20 19 18 16 15 14 14 14 12 11 11 12 12 13 14 13 13 12 13 12 13 15 13 12 13 12 13 13 13 13 13 13 14 14 13 14 17 19 20 19 19 18 17 17 17 16 16 16 16 16 15 16 17 17 17 17 16 15 16 17 17 17 18 18
33 30 27 26 25 23 21 20 19 18 17 15 14 13 13 13 14 15 16 18 18 18 18 16 15 14 15 14 13 12 12 12 12 12 13 13 13 12 12 12 12 12 13 12 13 13 13 13 12 12 12 13 14 14 14 15 16 17 18 19 19 18 18 17 17 17 16 16 15 16 15 15 15 16 16 16 16 16 15 16 17 17 18 19 19
32 30 27 26 25 23 22 20 19 18 17 16 15 14 13 13 14 14 15 16 17 16 16 15 15 14 15 14 13 13 12 12 12 12 12 12 12 12 11 10 10 11 11 10 11 12 13 13 12 12 12 13 14 15 15 16 17 17 17 17 18 17 17 16 17 17 16 16 15 15 15 14 14 15 15 15 15 15 16 16 16 17 18 20 20
31 30 27 25 24 23 22 20 20 18 18 16 15 15 14 13 13 14 14 15 15 15 15 15 14 15 15 14 13 13 12 12 12 12 12 12 12 12 11 10 10 11 10 8 9 10 12 13 12 12 12 13 15 16 16 17 17 16 16 16 17 16 16 16 16 16 16 16 15 16 15 14 14 14 14 14 14 15 15 16 16 16 18 20 20
30 29 27 26 24 23 21 20 20 19 18 17 16 15 15 14 13 14 14 14 14 14 14 14 14 14 14 14 13 13 12 12 12 13 13 12 12 12 12 12 12 12 11 8 7 8 10 11 12 12 12 13 15 16 17 18 17 16 15 15 16 15 15 15 15 15 16 16 16 16 15 14 14 13 13 13 13 14 15 15 16 16 17 19 20
29 28 26 25 23 22 21 20 20 19 19 18 17 16 15 15 14 13 13 13 13 13 13 13 14 14 14 14 13 12 12 11 11 12 12 12 12 12 12 13 12 11 12 9 6 7 9 10 11 12 12 13 15 17 18 18 17 16 15 14 14 14 14 14 14 15 15 15 16 16 15 14 13 13 12 12 12 13 14 15 15 15 17 18 19
27 26 24 23 21 21 20 20 20 20 20 19 18 17 16 15 14 13 13 12 12 12 12 13 14 14 14 13 12 11 10 11 11 11 12 12 12 12 11 12 14 13 12 10 7 6 8 9 11 12 12 13 14 17 18 17 17 15 14 14 13 13 12 13 13 14 14 15 15 15 15 13 12 13 12 12 11 11 12 14 14 15 16 17 18
26 25 23 22 20 20 19 19 20 20 20 20 19 18 17 16 14 13 12 12 11 11 12 12 13 13 14 13 12 11 11 13 13 12 12 13 13 12 11 12 14 14 12 11 9 9 7 7 10 12 12 13 14 17 18 17 16 15 14 13 13 13 11 11 12 13 13 14 13 14 14 12 11 11 11 11 11 11 11 12 14 14 15 16 17
25 24 23 21 19 19 18 18 19 20 21 20 19 18 17 15 14 13 12 12 11 11 11 11 12 12 13 13 12 12 13 14 14 14 13 13 13 12 11 12 13 13 12 12 13 12 9 8 11 12 12 13 13 15 18 19 17 15 14 13 13 13 11 10 10 11 12 12 13 12 12 12 10 11 10 9 10 11 11 11 12 13 15 16 16
24 23 21 19 19 18 18 18 19 20 20 20 18 17 16 15 14 12 11 12 12 11 11 11 12 12 13 13 12 13 14 14 14 14 13 12 11 10 11 11 13 13 11 11 13 13 10 9 12 13 12 13 13 14 16 18 18 16 15 14 13 13 12 10 9 10 11 11 12 11 11 11 10 10 10 9 8 9 10 10 11 12 14 15 15
23 21 19 19 18 18 18 20 21 21 21 19 18 17 16 15 13 12 12 12 11 11 11 11 11 12 12 13 13 13 13 12 12 12 12 11 10 9 10 11 11 11 10 10 10 10 9 9 11 12 12 11 12 13 12 13 15 15 14 14 13 12 12 10 9 9 9 10 10 11 10 10 10 10 10 9 8 8 9 9 10 11 13 14 14
22 19 19 19 18 19 20 21 22 21 20 19 18 16 15 14 13 13 12 11 11 11 10 10 10 12 13 13 13 12 12 12 12 11 11 11 9 8 10 10 10 10 10 8 8 8 8 8 9 11 11 9 10 11 11 11 12 13 13 14 13 12 12 11 10 8 8 9 9 9 9 9 9 9 9 9 9 8 8 8 9 10 11 12 13
21 19 19 19 18 20 20 20 21 20 20 19 18 17 15 14 13 13 12 11 10 10 10 10 11 12 13 13 13 12 13 13 13 12 11 10 8 8 9 10 10 10 9 8 7 6 6 6 6 8 8 8 9 10 10 9 9 12 12 12 13 11 11 10 10 9 7 7 8 8 9 9 8 8 9 9 8 8 7 8 8 8 10 10 11
21 19 19 19 18 19 18 18 19 20 20 19 18 16 16 15 14 12 11 10 10 10 10 11 12 12 12 12 13 13 13 12 13 12 11 10 8 8 9 10 9 9 9 8 7 5 5 5 5 6 6 7 8 8 9 8 8 11 12 11 11 11 10 10 9 8 8 7 7 7 8 8 8 8 8 9 8 7 7 7 7 7 8 9 9
20 19 18 19 18 18 18 17 18 19 19 18 17 16 15 14 13 11 10 11 10 10 11 12 12 13 13 13 14 13 12 12 12 11 10 10 9 9 9 10 9 8 8 8 7 6 5 4 4 5 6 6 7 8 8 8 8 8 11 11 10 10 9 9 8 8 7 7 6 6 6 7 6 7 7 7 7 6 6 6 6 6 7 8 8
19 18 18 18 18 18 17 17 17 18 18 17 17 16 15 14 12 12 11 12 11 12 12 13 13 13 13 13 12 12 12 12 12 11 10 9 9 9 9 9 8 7 7 7 6 5 5 4 3 4 5 7 8 8 9 8 8 7 9 11 11 10 9 9 8 8 7 7 6 5 5 5 5 7 7 6 6 5 4 4 5 5 6 6 7
19 19 19 18 17 16 16 16 16 16 16 15 16 16 15 14 12 12 13 13 12 12 12 13 13 13 12 12 12 12 12 12 11 10 9 9 9 8 8 7 7 7 7 7 6 5 5 4 3 3 4 6 8 9 9 9 9 8 7 9 10 10 10 9 8 8 8 7 6 5 5 4 4 6 6 5 4 4 4 2 3 4 4 5 6
18 18 18 17 16 15 15 15 16 16 16 15 15 15 14 14 13 14 14 13 13 12 13 13 13 13 13 13 13 12 11 10 9 9 9 9 9 8 7 6 6 6 6 6 6 5 5 4 4 3 4 6 8 9 10 10 10 9 7 7 9 9 9 9 8 8 8 8 6 5 4 3 3 5 5 4 3 2 2 2 0 2 3 3 5
17 18 18 17 16 16 16 15 16 16 16 16 15 15 15 15 14 14 14 13 13 14 14 13 13 13 13 13 12 11 10 9 8 8 9 8 8 7 6 5 5 6 6 6 6 5 5 4 4 5 5 7 8 9 11 11 11 10 8 6 6 8 8 9 9 8 8 8 7 5 3 2 2 3 3 3 3 1 1 1 0 1 2 2 3
17 18 18 18 17 17 17 16 17 16 16 16 16 16 15 15 15 14 14 15 15 14 14 13 13 13 12 12 10 9 9 8 8 8 8 8 7 6 5 5 5 5 6 6 6 5 5 4 5 6 6 7 8 10 11 12 12 11 10 7 5 6 7 9 9 9 8 8 7 5 3 3 2 1 1 2 2 1 0 0 1 1 2 2 2
19 19 19 18 17 17 18 17 17 16 16 17 17 17 16 16 15 15 15 16 15 14 13 11 11 12 12 11 10 9 8 8 8 8 8 7 6 5 5 5 5 5 5 5 5 6 5 5 4 5 6 7 8 9 11 12 13 13 11 8 5 6 7 8 9 8 8 7 6 4 3 3 3 2 1 1 2 1 1 2 2 2 3 2 2
19 20 19 18 18 17 16 17 18 17 17 17 17 17 16 16 16 16 16 16 14 13 12 11 11 11 11 11 9 8 8 7 8 7 7 6 5 5 5 5 5 5 5 4 5 6 5 4 4 4 5 7 8 8 10 11 12 13 12 9 6 6 8 8 7 7 7 5 4 3 2 3 4 3 2 1 1 2 2 2 2 3 3 3 3
19 20 19 19 20 19 18 19 18 18 18 17 17 16 16 16 16 16 15 14 13 12 11 10 10 10 10 9 8 7 7 7 7 7 6 6 5 5 6 6 5 5 5 4 3 5 5 4 4 4 5 7 8 8 8 9 11 12 11 10 8 7 7 8 7 6 6 4 3 2 1 3 4 5 3 3 2 2 3 3 3 3 3 3 3
20 19 18 19 21 21 22 20 17 18 19 18 17 16 17 16 15 15 13 13 12 12 12 11 10 9 8 8 7 6 6 6 6 6 5 5 5 6 6 6 6 5 5 4 3 4 4 4 5 6 5 6 8 9 8 8 9 10 11 10 8 7 7 7 6 6 6 5 4 2 0 2 4 5 4 3 3 3 4 4 4 4 3 3 3
18 17 17 18 22 23 22 20 17 17 17 17 17 16 16 15 14 13 12 11 11 11 10 9 8 7 6 6 5 5 4 5 5 5 4 4 5 6 7 7 6 6 5 4 3 4 3 4 4 6 7 7 8 9 8 7 7 9 10 10 9 8 7 5 5 5 5 5 5 3 1 1 3 5 5 4 3 3 4 5 4 4 4 3 3
17 18 19 22 25 25 23 21 19 17 16 15 15 14 14 14 12 12 11 10 10 9 9 7 7 6 6 5 5 4 4 4 5 4 3 3 4 5 7 7 7 6 5 4 3 3 3 3 3 5 7 8 8 9 9 7 7 7 9 9 9 9 8 6 5 4 4 5 4 3 1 1 2 4 5 4 4 3 4 4 4 4 4 4 3
19 21 24 27 29 26 23 20 19 17 15 14 13 12 12 12 11 11 10 9 9 8 7 6 6 6 6 6 6 5 5 5 5 5 4 4 4 5 7 7 6 6 5 4 2 2 2 3 3 4 7 8 8 9 9 7 6 6 7 8 9 9 9 8 7 5 4 5 4 3 1 0 2 4 5 3 3 2 3 4 3 4 4 4 4
22 22 24 29 28 24 20 18 17 16 15 14 12 11 10 10 9 9 9 8 7 7 6 6 6 6 6 7 7 7 7 7 6 6 6 6 5 5 6 6 6 5 5 4 3 2 3 3 3 3 6 8 8 9 9 7 5 5 5 6 7 9 9 9 9 7 5 5 4 3 2 0 1 2 4 3 2 2 3 3 3 3 3 4 5
24 23 24 27 26 23 21 19 17 16 15 13 12 10 9 8 7 7 7 7 6 6 5 5 6 6 7 7 8 8 8 9 8 8 7 7 6 5 6 6 6 5 5 5 4 4 4 4 3 3 6 8 8 9 9 7 6 5 5 5 7 8 9 9 8 8 7 7 6 5 4 2 1 1 3 2 2 1 2 2 2 3 3 3 4
24 25 26 27 26 25 23 21 18 16 15 13 12 11 9 8 7 7 6 5 5 5 6 6 7 6 7 7 8 8 8 10 10 8 7 6 5 5 6 6 5 5 6 6 6 5 5 6 5 4 5 7 9 10 10 8 7 6 5 6 7 8 9 9 8 8 8 8 8 7 6 4 2 1 2 2 2 0 2 2 2 2 2 1 2
25 25 26 27 28 25 22 20 18 16 15 13 11 10 10 9 8 7 6 6 6 7 8 8 7 6 5 6 7 8 8 9 10 8 7 6 5 5 6 5 5 6 7 8 8 7 7 7 7 6 6 6 8 11 11 10 8 7 6 7 8 9 9 9 10 9 8 8 8 8 7 5 3 2 1 2 2 2 1 1 2 3 2 1 1
27 26 26 27 27 24 21 19 17 16 14 13 12 11 10 9 8 8 7 7 8 8 8 7 7 5 4 5 6 8 8 8 9 8 8 7 5 6 6 5 5 6 7 8 9 8 8 8 8 8 7 7 9 12 12 11 10 9 8 8 8 9 10 10 10 9 9 8 8 9 8 5 4 2 1 1 2 3 3 2 1 3 3 2 1
28 27 26 25 23 21 20 18 17 16 14 13 12 11 10 9 9 8 7 8 8 7 6 6 6 5 4 5 6 6 6 7 8 8 8 7 6 7 6 5 6 7 7 8 8 8 8 8 9 9 9 9 10 11 11 10 10 10 10 10 9 9 9 9 9 8 8 8 7 8 8 6 5 4 2 0 2 2 3 3 2 1 2 1 0
28 27 25 22 20 19 18 18 17 16 15 13 12 11 10 9 9 8 7 8 7 6 6 6 6 5 5 6 5 5 5 6 7 6 7 7 7 7 7 6 6 7 7 7 8 8 8 8 9 9 10 10 10 10 10 10 9 10 10 10 10 9 9 9 9 9 8 8 7 7 8 7 7 5 3 1 1 2 3 3 3 3 1 1 1
28 25 22 19 19 18 17 18 18 17 15 13 12 11 10 9 8 8 8 8 8 7 7 6 5 5 5 4 4 4 4 5 6 6 7 7 8 8 7 7 6 6 7 7 8 8 9 8 9 9 9 9 9 9 10 10 10 10 10 10 10 9 8 8 8 9 9 9 8 8 7 8 8 7 5 3 2 2 2 2 3 3 2 1 1
25 21 18 19 21 19 16 17 17 15 14 13 12 11 10 10 9 9 8 8 8 7 6 6 4 4 4 3 2 3 3 4 6 7 8 8 7 7 8 8 7 7 7 8 8 8 9 8 8 8 8 8 8 8 10 11 11 11 9 9 9 9 8 8 8 8 9 9 9 9 9 9 9 9 7 6 4 3 2 1 1 1 2 2 1
22 18 17 19 20 18 16 17 16 14 14 13 12 12 12 11 11 10 8 6 6 5 5 4 3 3 2 2 2 2 2 3 5 6 7 7 7 7 8 8 8 8 9 8 8 8 9 8 8 8 8 7 6 7 9 10 11 10 9 8 8 8 8 8 8 8 8 8 8 9 11 11 10 10 10 9 7 6 4 3 2 1 0 1 2
21 19 19 17 16 17 18 18 16 15 15 14 13 13 12 12 10 8 7 5 5 5 4 4 4 2 1 1 1 1 1 1 3 4 5 5 6 6 7 7 7 8 9 9 9 9 9 9 9 8 8 7 6 7 9 10 10 10 9 9 9 9 9 8 8 8 8 8 8 8 10 11 11 11 10 10 10 9 7 5 4 3 3 1 0
21 20 19 16 15 17 18 17 16 16 15 14 13 12 12 10 8 6 6 6 6 6 5 5 4 2 1 0 1 1 1 1 1 2 2 3 3 4 4 5 6 7 8 8 9 10 10 10 10 8 7 6 6 7 9 9 10 11 11 11 10 10 10 10 9 8 8 9 9 9 9 10 11 11 10 10 10 11 11 9 7 6 5 4 2
22 21 18 16 17 17 17 17 16 16 14 12 11 10 8 6 4 5 5 7 7 7 6 5 3 2 2 2 1 0 1 1 1 1 1 1 1 1 1 2 3 4 5 6 7 8 8 9 9 8 6 5 6 8 9 8 10 10 11 11 10 10 10 10 10 9 9 10 10 10 10 9 9 10 10 10 10 12 14 13 10 8 7 6 5
24 22 19 17 18 17 16 16 15 13 12 10 8 7 5 2 2 3 5 6 7 6 5 5 3 2 3 3 3 1 1 1 1 1 1 1 0 1 2 3 3 3 4 5 5 6 5 5 5 5 6 5 7 9 9 9 9 9 10 10 10 10 10 10 10 10 10 10 10 10 10 9 9 10 10 9 10 11 11 11 12 11 11 10 8
24 23 22 19 19 19 18 16 14 13 11 8 6 5 4 3 2 3 4 5 6 6 6 5 3 3 4 5 5 4 2 1 1 1 1 0 1 1 2 2 2 2 2 3 3 4 3 4 2 1 3 3 6 8 8 9 9 8 9 10 9 9 9 10 10 10 10 10 9 9 8 8 8 9 9 9 9 10 9 9 11 12 13 13 11
26 25 23 21 19 19 19 17 15 14 11 8 6 5 5 4 3 3 4 5 5 6 6 5 4 5 6 6 6 6 5 4 3 3 3 2 3 3 3 2 1 1 1 2 2 2 3 3 3 2 0 1 4 5 6 7 7 7 8 8 8 8 7 7 9 9 9 9 10 9 9 9 10 10 10 9 10 11 11 9 9 9 11 12 13
27 24 22 22 21 19 19 19 18 15 10 7 5 5 6 5 3 2 3 4 5 6 6 6 6 6 6 6 6 7 7 6 5 5 4 5 5 5 5 3 2 1 2 2 3 4 5 5 5 3 2 1 3 4 5 5 5 6 7 6 6 6 5 6 7 7 8 9 10 11 11 12 12 12 12 11 11 12 12 11 9 8 9 10 10
24 23 20 21 20 18 16 15 14 13 10 6 5 6 7 5 2 1 1 3 5 6 6 6 6 5 5 5 5 6 7 6 6 5 5 5 5 6 5 4 2 1 1 1 2 3 3 4 5 4 4 3 2 3 4 5 6 6 6 7 7 6 4 5 5 4 6 7 8 8 9 10 11 12 11 11 11 11 11 10 9 8 9 9 9
21 22 19 18 18 17 14 10 10 12 12 11 9 8 7 5 2 1 3 5 5 6 6 5 5 5 4 4 4 5 6 6 5 5 5 5 6 6 6 5 4 2 1 1 0 1 2 3 3 3 4 5 3 2 2 4 5 6 7 8 9 7 4 4 4 4 4 4 4 3 4 6 8 8 9 9 8 9 8 7 7 8 9 8 8
22 23 20 18 17 16 12 11 14 16 14 12 10 8 7 4 3 3 3 5 6 5 6 5 5 5 4 3 4 5 6 5 5 6 7 7 8 7 7 7 5 4 2 1 0 2 3 3 2 2 2 3 4 4 3 1 2 5 6 5 6 6 4 3 5 6 4 3 3 3 3 5 6 5 6 8 7 7 6 6 7 8 9 9 8
23 23 22 19 15 12 10 12 17 18 14 11 10 9 8 5 4 4 3 4 5 5 5 4 4 4 4 3 4 5 6 6 6 8 9 10 9 9 9 9 8 7 6 4 2 1 1 1 1 2 3 3 3 4 4 4 3 3 3 2 2 2 0 0 2 5 6 5 5 6 4 3 5 4 4 6 6 5 5 6 6 7 7 7 7
22 22 21 16 13 12 11 13 17 17 13 11 10 11 11 8 6 5 3 3 5 5 5 4 4 4 4 4 5 5 6 6 8 9 10 10 10 10 10 10 10 10 9 8 7 6 5 5 3 3 3 3 2 2 2 4 4 5 6 5 4 4 3 3 3 3 6 7 7 8 7 4 4 4 3 5 4 3 3 3 4 4 3 3 3
22 23 20 16 14 15 13 13 16 18 15 12 11 12 12 10 8 7 4 4 4 4 4 4 5 5 5 5 6 6 6 7 9 10 10 10 9 10 10 9 9 10 10 10 10 9 9 8 7 6 4 2 1 1 1 1 2 4 5 4 4 4 3 4 5 5 5 7 9 10 9 8 7 7 5 3 3 3 1 0 1 2 3 3 2
Wind_Direction
170 173 169 168 170 171 174 173 171 170 168 165 161 157 151 143 138 136 140 145 149 151 152 153 150 145 141 140 137 135 136 139 142 142 141 143 147 150 150 142 141 141 139 148 152 152 152 146 139 131 130 130 128 126 116 109 108 103 99 96 94 92 89 87 85 82 78 77 76 75 76 77 80 82 82 84 85 85 83 81 78 71 66 65 66
167 170 168 169 171 172 174 174 173 170 169 167 164 159 152 144 138 135 139 146 150 153 155 154 152 148 144 142 139 138 141 144 144 142 141 143 147 149 150 144 142 140 141 151 153 150 152 153 146 136 134 133 133 129 118 112 112 108 103 100 98 94 91 89 87 85 82 80 78 76 77 79 81 82 81 82 84 85 85 81 77 71 67 64 64
163 167 168 169 171 172 174 176 174 171 171 169 166 160 154 146 140 136 138 145 151 156 157 154 153 149 145 143 141 140 140 142 142 139 141 143 148 149 148 146 144 140 140 147 152 152 153 155 150 140 136 136 138 129 118 116 116 112 107 105 101 97 94 91 89 88 87 84 81 80 80 81 82 81 80 80 82 85 85 81 76 71 66 63 62
164 166 167 169 170 173 175 177 175 174 174 171 168 161 156 149 143 138 137 142 148 153 153 152 151 147 145 144 141 137 135 136 138 139 142 145 148 147 145 147 143 137 137 141 144 150 152 152 149 145 141 140 142 132 122 120 119 115 112 108 104 101 97 93 91 90 89 86 83 84 83 81 80 80 79 79 81 82 83 82 78 71 65 61 60
166 165 167 168 170 173 175 177 176 176 175 173 170 162 156 149 144 138 136 138 141 146 147 148 148 147 145 143 137 131 128 128 131 133 135 138 142 140 140 139 130 123 121 126 135 142 148 150 151 152 148 146 146 136 127 125 122 119 117 112 108 105 102 98 94 93 91 87 83 83 83 81 79 79 77 76 77 79 80 82 81 75 68 62 59
169 168 168 170 171 173 174 176 176 177 177 175 171 164 157 149 144 138 136 136 139 142 144 146 145 144 142 137 133 128 125 124 126 125 124 125 128 130 130 124 116 113 110 112 125 133 144 149 153 158 154 153 151 140 134 132 128 125 120 116 113 110 107 103 99 96 93 89 84 81 80 80 77 76 75 73 73 75 78 80 81 79 72 66 61
172 171 170 172 172 172 173 176 177 178 178 177 173 167 159 150 145 140 138 137 140 142 141 143 142 141 139 136 132 128 127 127 129 127 122 117 115 116 119 124 122 121 124 130 127 119 133 143 150 156 158 161 155 145 142 140 135 131 125 121 117 115 113 108 103 97 94 90 85 82 79 78 77 76 75 73 72 72 76 78 79 79 76 69 65
174 172 171 172 172 173 173 176 177 179 180 178 176 170 163 154 149 145 141 139 140 142 142 143 144 145 141 137 132 128 129 133 134 132 127 119 113 105 105 126 138 136 136 139 128 112 123 137 146 152 155 162 159 149 148 147 143 139 133 128 122 119 118 112 106 99 95 90 87 84 79 77 77 76 75 73 71 72 74 77 78 78 77 73 68
174 173 173 172 172 174 174 176 177 180 180 178 175 170 164 157 153 149 146 143 141 144 146 149 150 147 141 135 134 133 137 139 136 134 130 123 116 105 97 114 138 146 147 144 132 123 129 140 145 148 152 159 161 155 152 151 150 147 143 138 131 127 123 117 109 102 97 91 87 82 76 74 72 71 74 73 69 73 73 74 78 79 79 76 72
174 174 174 173 174 176 175 176 177 180 181 178 173 168 163 158 153 150 149 147 145 148 153 156 153 147 141 138 140 140 139 138 135 131 129 127 121 110 103 108 124 138 145 146 142 141 146 151 147 149 157 161 163 163 159 156 156 154 152 148 140 134 130 123 112 104 99 93 88 82 76 73 67 63 67 72 70 70 71 72 76 78 81 78 75
174 173 171 172 174 175 173 172 176 178 178 176 172 167 163 159 154 152 153 150 150 154 158 160 157 152 147 144 144 143 138 133 129 127 128 129 124 112 109 112 117 123 126 133 142 149 154 154 152 154 161 168 171 172 167 160 158 158 158 153 147 141 135 128 114 104 100 95 88 84 78 74 69 63 62 66 69 68 68 71 76 79 80 80 78
172 169 166 168 171 169 168 171 174 173 171 169 167 165 162 160 159 158 157 153 153 158 163 163 163 160 154 149 148 146 140 133 129 129 132 130 124 115 112 115 115 116 119 125 133 141 149 153 159 163 168 176 177 177 175 167 158 159 164 157 154 146 138 134 120 108 102 98 92 89 83 76 69 65 61 57 63 68 66 66 72 77 79 81 81
167 163 166 168 167 164 167 170 171 170 169 167 167 166 164 165 165 164 161 157 156 160 164 166 170 168 160 155 152 150 148 148 145 141 138 133 127 121 117 119 116 113 116 123 130 132 141 152 163 172 178 181 178 177 178 176 158 152 165 162 159 152 139 136 127 117 108 103 98 94 89 84 74 64 60 54 57 62 65 67 66 73 76 79 82
164 162 167 165 165 164 166 168 167 169 170 171 171 169 168 170 170 169 165 162 160 160 165 169 174 172 165 160 157 157 160 162 159 150 142 137 130 122 119 121 118 115 116 116 123 128 136 147 159 173 186 185 178 178 175 182 165 146 159 162 156 150 139 135 131 125 117 112 105 100 95 90 82 69 60 53 52 51 59 67 64 70 75 75 80
166 162 164 162 161 160 160 162 165 169 173 175 175 174 174 175 176 174 171 166 161 162 167 170 172 173 170 165 164 167 164 162 159 153 144 139 132 126 123 121 122 120 117 109 108 113 123 140 154 169 187 189 183 184 178 187 180 153 155 162 154 148 141 134 133 131 125 122 113 105 100 94 91 84 69 58 53 49 53 61 66 72 76 75 76
164 160 161 157 155 153 153 160 167 170 173 177 179 181 181 183 183 179 174 166 161 163 166 169 172 175 176 173 172 170 163 159 160 156 147 142 136 132 128 126 130 125 115 106 100 99 105 128 155 173 186 194 192 195 193 196 200 169 155 160 158 150 143 137 136 137 132 129 121 114 108 102 100 94 80 65 59 53 50 55 66 74 79 79 76
161 158 157 154 154 153 154 160 167 171 174 180 184 186 187 188 185 178 172 163 158 161 166 171 173 176 178 176 174 165 159 158 158 156 149 144 138 134 130 126 126 118 111 106 99 92 92 110 143 178 192 200 202 204 207 207 213 198 164 158 159 156 149 141 140 140 137 133 124 122 117 110 107 99 87 75 66 55 50 52 61 73 81 82 81
158 157 156 156 156 154 156 160 166 172 175 181 186 186 185 185 180 173 167 158 156 161 167 170 171 174 174 171 169 161 155 154 152 152 148 142 138 134 128 122 116 112 115 112 106 100 97 107 129 171 201 210 214 214 216 216 218 219 192 166 159 161 158 148 143 142 138 131 121 119 120 114 116 107 95 85 70 55 53 50 53 70 81 86 86
154 154 155 153 156 161 162 164 167 169 170 173 176 176 176 175 171 167 162 156 157 162 165 169 169 169 167 165 164 160 155 154 151 149 146 143 140 135 126 120 117 118 122 122 120 120 120 128 142 167 199 214 221 223 224 225 224 226 220 189 165 163 164 155 147 145 137 127 116 110 113 115 121 113 106 100 84 62 52 53 47 83 91 94 94
152 152 152 152 161 167 165 164 165 164 165 166 164 168 172 168 163 161 160 157 161 164 166 169 165 161 163 161 161 160 158 157 154 150 148 147 143 135 127 123 124 126 129 135 135 136 142 153 165 178 195 210 219 226 227 229 229 229 229 213 180 168 169 163 154 149 138 127 115 102 100 99 102 109 115 117 108 96 43 55 267 192 130 111 111
152 153 155 161 165 164 164 163 164 162 162 164 162 166 168 161 157 158 158 158 163 165 164 165 162 160 161 159 159 160 162 162 159 157 154 152 148 137 129 130 134 134 136 141 144 151 163 173 185 192 199 209 215 221 224 226 229 229 230 223 197 175 172 169 161 153 142 131 117 101 91 72 38 54 114 128 129 136 264 260 274 245 197 157 141
156 159 164 166 163 162 165 165 164 162 162 165 163 162 160 156 154 155 158 159 162 163 161 163 162 162 163 162 162 160 161 165 163 162 162 161 157 147 142 144 145 145 145 145 150 160 169 179 192 202 209 214 218 219 219 221 224 226 227 224 203 174 171 173 167 160 151 139 124 105 85 56 19 343 317 160 158 175 235 263 273 271 246 205 173
158 162 163 160 159 159 165 170 166 162 166 167 162 159 157 155 154 155 158 160 161 163 163 165 164 166 169 170 167 163 164 167 170 171 174 176 173 165 158 155 157 161 158 154 157 161 167 180 192 203 214 220 222 224 221 219 219 220 221 219 204 177 170 173 174 169 163 155 141 120 81 38 8 348 320 281 225 207 221 250 259 269 266 242 204
161 161 160 154 155 158 165 172 168 164 170 169 161 159 158 156 157 159 161 161 161 163 164 166 167 169 172 172 169 170 173 175 176 177 182 185 182 177 170 165 168 172 165 155 161 164 167 183 194 203 212 220 221 223 225 222 220 218 217 213 202 185 174 172 176 179 178 177 171 153 78 23 360 348 326 294 283 258 235 232 241 254 264 253 214
155 148 148 149 155 165 168 170 171 168 171 170 164 162 161 160 161 163 162 161 161 162 163 165 167 165 164 167 171 176 183 183 179 177 179 182 183 183 182 177 171 174 171 162 169 172 172 183 194 203 211 221 219 218 222 224 223 221 218 213 203 190 178 171 173 182 187 194 205 203 142 17 359 346 327 292 285 283 255 236 237 243 248 245 212
151 140 147 157 164 170 169 171 175 171 170 171 167 165 165 163 161 161 160 158 158 160 161 161 159 157 159 163 172 182 192 192 188 185 175 171 179 185 189 190 185 184 182 175 177 178 178 186 199 208 213 219 216 216 218 220 222 222 221 216 210 200 189 180 176 182 189 200 216 207 177 25 6 346 330 297 288 291 264 247 243 243 241 235 218
164 162 171 174 171 172 172 174 173 170 171 172 169 166 164 161 159 158 158 159 159 161 161 161 162 164 170 175 184 195 206 210 210 203 185 176 184 188 195 200 199 195 189 182 183 190 192 199 211 217 217 216 212 212 214 216 217 222 224 219 217 213 206 201 192 186 185 198 215 205 170 53 16 350 338 311 294 283 254 252 251 248 242 234 234
173 172 180 177 173 174 175 174 172 171 170 170 170 165 161 160 161 162 162 164 164 167 170 173 180 184 191 195 201 210 217 225 228 218 208 214 214 200 200 207 210 204 193 186 191 205 209 210 221 226 222 216 210 211 213 213 213 220 225 220 218 222 224 220 210 193 183 192 205 203 183 63 15 358 349 328 304 280 247 250 256 255 244 232 243
181 178 183 179 176 176 175 174 174 176 172 171 173 165 165 169 171 173 172 173 174 180 184 190 198 203 210 212 216 222 225 232 237 231 225 230 234 217 207 209 213 211 198 192 196 208 210 213 229 235 221 216 214 212 214 215 211 214 221 217 213 223 229 227 224 218 212 213 215 217 210 203 3 1 358 346 323 284 239 238 253 260 253 233 243
189 187 186 181 180 180 180 180 177 179 178 177 177 172 178 184 186 187 182 182 186 195 204 214 223 228 229 227 230 232 230 234 236 238 237 233 238 232 214 205 208 212 202 196 195 197 203 205 219 236 219 216 219 214 214 221 215 210 217 210 202 213 222 225 232 232 226 228 231 231 228 232 258 323 345 352 345 260 214 225 253 262 268 240 236
192 188 184 183 185 186 184 183 179 181 182 184 185 184 192 196 197 200 194 196 202 212 220 228 235 239 243 241 241 241 236 236 237 238 237 229 233 233 214 201 204 211 206 201 198 199 204 204 211 232 226 215 221 222 220 226 223 213 210 204 196 204 215 224 232 229 223 229 235 231 224 225 233 259 314 336 357 148 189 209 227 238 266 261 234
191 186 184 186 190 190 186 184 183 184 185 189 193 195 203 204 206 209 203 203 213 224 228 235 240 235 241 245 244 240 234 236 239 235 226 221 226 224 213 209 210 208 205 202 201 203 206 209 214 228 237 225 225 229 228 230 233 228 218 209 205 207 211 217 222 221 220 223 225 220 213 214 218 229 295 326 353 20 98 178 203 214 229 264 235
192 189 188 190 193 191 186 186 187 187 189 194 199 204 210 210 211 212 204 205 216 229 237 246 246 230 222 233 237 237 234 237 238 229 224 223 219 214 215 218 213 205 203 202 203 206 207 214 219 222 231 229 227 231 231 233 238 241 237 226 218 215 215 215 214 213 213 213 212 209 206 204 207 210 233 324 352 11 23 45 135 201 209 228 231
195 194 194 195 195 190 187 189 189 190 193 197 201 204 206 209 211 209 204 210 220 234 245 244 234 222 223 233 240 243 236 235 234 223 224 223 208 209 217 218 209 202 203 204 207 210 211 216 222 221 224 226 229 234 236 237 240 243 244 239 229 221 219 218 214 209 206 207 210 210 210 206 202 205 206 291 359 14 22 32 41 111 181 166 135
197 196 197 197 194 192 192 193 191 191 193 194 196 198 200 204 207 206 207 216 224 232 237 231 219 219 240 242 241 246 233 229 232 220 215 213 205 207 217 218 213 210 208 210 214 214 213 214 217 217 220 225 231 240 243 244 246 246 245 241 235 228 225 225 222 219 214 214 218 219 220 216 207 208 213 241 346 8 21 29 35 46 76 97 73
198 197 195 191 192 195 196 195 192 189 188 185 187 190 195 200 204 206 210 217 222 226 227 222 218 224 242 241 231 240 236 229 231 221 211 210 209 212 218 222 223 222 217 218 224 225 219 214 214 212 214 223 230 241 245 247 252 253 250 244 238 236 235 234 232 230 229 228 229 228 232 232 219 211 215 234 268 326 359 21 28 39 43 47 60
199 193 188 188 190 192 190 187 185 182 181 177 180 185 192 198 202 205 206 207 211 217 219 215 216 221 231 239 240 249 251 242 236 230 222 214 214 218 223 227 230 234 233 231 234 237 229 219 220 219 219 223 227 236 244 249 254 256 256 250 242 240 241 241 238 235 234 233 234 235 238 243 233 219 218 229 237 251 279 321 2 40 40 30 39
199 187 185 192 189 185 181 177 174 176 177 174 179 187 192 196 197 196 193 191 195 203 209 210 210 219 226 237 247 250 248 240 233 232 230 225 224 227 231 236 241 247 253 252 248 246 238 228 228 229 229 232 231 236 244 251 255 256 257 255 246 241 242 242 240 237 234 232 234 235 236 241 246 240 232 233 236 240 247 252 268 266 243 43 50
198 187 190 193 183 183 180 172 170 173 175 176 183 189 191 193 189 184 176 167 170 180 188 194 197 206 217 223 222 204 205 209 212 219 227 232 233 235 241 247 253 256 260 263 263 262 256 245 238 232 230 235 239 244 248 252 255 256 257 259 255 249 246 246 244 241 239 235 234 234 234 237 246 253 250 247 246 245 246 243 247 259 258 267 21
195 190 194 189 180 186 179 171 173 174 177 181 185 189 189 188 183 172 156 147 150 159 166 172 173 167 170 258 275 219 177 143 157 190 208 225 233 241 252 259 264 266 268 270 270 271 268 261 254 244 232 227 235 245 246 246 251 254 256 257 257 257 256 255 251 247 245 244 240 237 237 239 245 252 254 256 256 251 250 246 240 247 258 272 289
195 194 198 187 182 187 179 173 175 174 180 184 183 187 189 185 171 154 141 137 143 152 155 152 141 114 76 44 16 260 203 157 141 141 157 163 187 251 279 281 282 285 288 287 284 282 278 271 266 257 244 225 225 238 238 235 241 246 249 252 252 254 256 258 258 254 253 255 252 247 243 242 249 253 249 249 255 256 253 251 249 249 252 260 264
196 198 199 191 185 188 183 177 174 176 181 180 180 183 186 175 123 122 127 135 142 144 141 137 128 97 70 66 67 67 63 118 138 147 148 163 205 289 301 304 300 295 297 299 302 307 307 297 280 258 252 233 221 234 234 228 233 236 241 247 247 247 249 253 258 257 257 258 254 249 244 241 249 257 253 244 250 263 263 256 255 254 251 252 254
200 201 200 197 195 193 189 180 176 179 176 169 171 178 186 178 128 110 121 133 140 139 136 135 126 91 77 74 78 88 96 99 99 104 118 202 255 297 303 311 305 296 306 315 318 324 336 337 334 268 255 231 212 229 230 221 226 234 239 242 242 244 247 248 254 256 255 252 246 243 241 241 247 252 252 246 246 259 270 268 261 258 256 256 258
205 206 200 199 201 199 194 184 181 181 172 161 165 181 194 187 163 132 130 137 136 133 131 127 112 90 85 80 82 96 104 105 96 83 76 65 59 56 54 54 34 33 34 28 30 29 35 34 36 58 206 187 191 217 226 220 224 231 233 237 242 245 245 243 246 250 247 243 243 244 243 242 245 248 250 249 244 247 258 268 268 268 268 263 258
210 209 202 200 202 204 199 189 184 180 169 162 173 193 203 199 195 161 152 154 136 125 121 114 100 89 91 88 86 97 101 99 94 84 72 63 60 55 53 56 49 53 57 57 67 65 60 58 54 58 71 120 178 208 221 218 217 224 225 231 244 250 253 245 240 239 234 233 240 246 248 244 243 248 253 251 245 245 255 267 271 273 274 271 264
212 210 205 204 205 211 212 196 185 181 175 180 196 203 205 216 252 358 112 130 125 120 115 107 93 82 85 86 89 100 101 99 95 85 73 65 58 49 48 57 63 73 84 80 80 68 57 48 46 50 58 77 148 201 223 223 214 216 223 231 242 256 274 259 239 233 225 224 234 242 249 247 241 243 248 250 248 249 258 266 269 271 270 272 271
209 210 208 206 206 214 216 201 192 193 191 199 210 207 204 222 253 133 94 94 103 108 106 99 88 83 83 85 95 104 104 99 91 84 80 73 62 54 56 63 73 89 117 155 126 2 342 354 15 31 49 64 98 151 203 227 221 219 226 236 241 246 265 255 227 225 223 219 221 222 240 245 238 238 240 243 243 244 253 261 265 271 273 276 275
209 211 213 211 207 211 209 197 200 203 200 202 209 210 208 225 223 179 131 107 107 104 101 96 86 84 87 90 93 96 94 84 77 82 88 83 75 69 67 68 72 78 82 98 289 307 307 322 355 15 43 63 84 98 109 145 204 224 231 239 239 235 248 256 230 222 203 172 180 196 223 243 236 225 228 232 231 234 247 261 266 270 273 279 286
213 212 216 215 209 205 200 204 206 204 206 209 209 214 219 221 205 186 157 123 117 111 103 94 86 86 91 94 87 83 77 73 80 91 94 92 87 80 72 70 71 74 74 71 64 21 359 45 77 88 90 91 95 94 89 91 110 148 167 168 187 202 219 39 209 210 186 160 172 184 180 218 230 207 209 226 228 237 254 265 273 276 274 274 276
223 222 220 210 199 192 192 208 207 197 201 210 211 219 222 214 195 188 170 126 117 114 104 91 86 88 91 86 80 77 73 79 92 98 97 94 90 83 75 71 70 72 74 73 74 76 81 87 87 97 110 106 98 100 80 78 94 109 119 121 114 106 92 87 104 154 174 173 179 175 152 153 189 166 172 221 219 218 251 269 283 297 308 308 292
222 227 224 208 198 193 190 203 203 194 196 204 212 222 223 209 191 189 172 131 113 104 97 87 85 88 89 87 84 85 83 86 97 100 96 92 88 85 78 73 71 69 70 72 76 79 82 85 81 83 92 86 52 18 4 80 107 110 115 115 114 116 110 106 109 123 155 172 173 162 141 129 131 125 126 150 144 137 147 11 2 24 29 27 18
Height
1509 1512 1514 1515 1517 1518 1520 1521 1523 1524 1525 1526 1527 1528 1529 1531 1532 1533 1535 1536 1537 1538 1539 1540 1541 1542 1543 1543 1543 1543 1544 1544 1545 1545 1546 1547 1547 1547 1548 1549 1550 1551 1553 1554 1554 1554 1554 1554 1554 1555 1555 1556 1556 1556 1556 1557 1557 1557 1557 1556 1556 1556 1557 1557 1556 1556 1556 1556 1556 1556 1556 1555 1555 1555 1554 1554 1553 1553 1553 1552 1551 1551 1550 1549 1548
1507 1512 1514 1515 1517 1518 1520 1521 1523 1524 1526 1527 1528 1529 1530 1531 1532 1534 1536 1537 1538 1539 1540 1541 1542 1542 1543 1544 1544 1544 1544 1545 1546 1546 1547 1547 1548 1549 1549 1550 1550 1551 1552 1553 1554 1554 1554 1554 1555 1555 1556 1556 1557 1557 1557 1558 1558 1558 1558 1558 1558 1558 1558 1558 1558 1557 1557 1557 1557 1557 1557 1557 1557 1556 1556 1555 1555 1555 1554 1554 1553 1552 1551 1550 1549
1508 1511 1513 1515 1517 1519 1520 1522 1523 1525 1526 1527 1528 1529 1531 1532 1533 1535 1536 1538 1539 1540 1541 1542 1542 1543 1544 1544 1544 1545 1545 1546 1547 1547 1547 1548 1549 1550 1550 1551 1551 1551 1552 1553 1554 1554 1554 1555 1556 1556 1556 1557 1557 1558 1559 1559 1559 1559 1559 1559 1559 1559 1559 1559 1559 1559 1558 1559 1559 1559 1559 1558 1558 1557 1557 1556 1556 1556 1556 1555 1554 1554 1553 1552 1550
1509 1511 1513 1516 1517 1519 1520 1522 1524 1525 1527 1528 1529 1530 1531 1532 1534 1535 1537 1538 1540 1541 1541 1542 1543 1543 1544 1545 1545 1545 1546 1547 1547 1548 1548 1549 1549 1551 1551 1552 1552 1552 1553 1553 1554 1554 1555 1555 1556 1556 1557 1557 1558 1559 1560 1560 1560 1560 1560 1560 1560 1560 1560 1560 1560 1560 1560 1560 1560 1560 1560 1560 1560 1559 1558 1558 1558 1557 1557 1556 1556 1555 1554 1553 1552
1509 1511 1514 1516 1518 1520 1521 1523 1524 1525 1527 1529 1530 1531 1532 1533 1534 1535 1537 1539 1540 1541 1542 1543 1543 1544 1545 1545 1546 1546 1547 1548 1548 1549 1549 1549 1550 1551 1552 1553 1553 1553 1553 1554 1554 1554 1555 1556 1556 1557 1557 1558 1559 1560 1561 1561 1561 1561 1561 1561 1561 1561 1561 1561 1561 1561 1561 1561 1561 1561 1561 1561 1561 1560 1560 1560 1559 1559 1558 1558 1557 1556 1555 1554 1553
1509 1511 1513 1516 1518 1520 1522 1523 1524 1526 1527 1529 1530 1532 1533 1534 1535 1536 1537 1539 1540 1542 1543 1544 1544 1545 1546 1546 1547 1547 1548 1549 1550 1550 1550 1551 1551 1552 1553 1553 1553 1553 1554 1555 1554 1555 1555 1556 1557 1557 1558 1558 1559 1560 1561 1562 1562 1562 1562 1562 1562 1562 1562 1562 1562 1562 1562 1562 1562 1562 1562 1562 1562 1562 1561 1561 1560 1560 1560 1559 1558 1558 1557 1556 1555
1510 1512 1514 1516 1518 1520 1522 1523 1524 1526 1527 1529 1530 1532 1533 1535 1536 1537 1538 1540 1541 1542 1544 1544 1545 1546 1546 1547 1548 1548 1549 1550 1550 1551 1551 1552 1552 1553 1553 1553 1554 1554 1555 1555 1555 1555 1556 1556 1557 1558 1558 1559 1560 1561 1562 1562 1563 1563 1563 1563 1563 1563 1563 1563 1563 1563 1563 1563 1563 1563 1563 1563 1563 1563 1563 1562 1562 1561 1561 1560 1560 1559 1558 1557 1556
1511 1513 1515 1517 1518 1520 1521 1523 1525 1526 1527 1529 1530 1532 1533 1535 1537 1538 1539 1540 1542 1543 1544 1545 1546 1547 1547 1548 1548 1549 1550 1550 1551 1551 1552 1552 1553 1553 1554 1554 1554 1555 1555 1556 1555 1556 1556 1557 1558 1558 1559 1559 1560 1561 1562 1563 1563 1564 1564 1564 1564 1564 1564 1564 1564 1564 1564 1564 1564 1564 1564 1564 1564 1564 1564 1564 1563 1563 1562 1562 1561 1561 1560 1559 1558
1511 1513 1515 1517 1518 1520 1522 1523 1525 1526 1528 1529 1530 1532 1533 1535 1537 1539 1540 1541 1542 1544 1545 1546 1546 1547 1548 1549 1549 1550 1551 1551 1551 1552 1552 1553 1553 1554 1554 1555 1555 1555 1556 1556 1556 1557 1557 1558 1558 1558 1559 1559 1560 1561 1562 1563 1564 1564 1564 1565 1565 1565 1565 1565 1565 1565 1565 1565 1565 1565 1565 1565 1565 1565 1565 1565 1564 1564 1564 1563 1562 1562 1561 1561 1560
1511 1513 1515 1517 1519 1520 1522 1524 1525 1527 1528 1530 1531 1532 1534 1535 1537 1540 1541 1542 1543 1544 1545 1546 1547 1548 1549 1550 1550 1550 1551 1552 1552 1553 1553 1554 1554 1554 1555 1555 1556 1556 1556 1556 1557 1557 1557 1558 1558 1559 1559 1559 1560 1561 1562 1563 1564 1565 1565 1565 1566 1566 1566 1566 1565 1565 1566 1566 1566 1566 1566 1566 1566 1566 1566 1566 1566 1565 1565 1564 1564 1563 1563 1562 1561
1512 1514 1516 1518 1519 1521 1523 1524 1526 1528 1529 1530 1532 1533 1534 1535 1537 1539 1541 1542 1543 1545 1546 1547 1548 1549 1550 1550 1551 1551 1552 1552 1553 1554 1554 1554 1555 1555 1555 1556 1556 1556 1556 1556 1557 1558 1558 1558 1559 1559 1559 1560 1560 1561 1562 1563 1564 1565 1565 1566 1566 1566 1566 1566 1566 1566 1566 1566 1567 1567 1567 1567 1567 1567 1567 1567 1566 1566 1566 1565 1565 1565 1564 1563 1563
1512 1515 1517 1518 1520 1521 1523 1524 1526 1528 1530 1531 1533 1534 1535 1536 1537 1539 1541 1542 1543 1545 1546 1548 1549 1550 1550 1551 1552 1552 1553 1553 1554 1554 1554 1555 1555 1556 1556 1556 1557 1556 1556 1557 1557 1558 1558 1559 1559 1559 1559 1560 1560 1561 1562 1564 1565 1566 1566 1567 1567 1567 1567 1567 1567 1567 1567 1567 1567 1567 1567 1567 1568 1568 1568 1568 1567 1567 1567 1567 1566 1566 1565 1564 1564
1513 1515 1517 1518 1520 1521 1522 1524 1526 1528 1530 1532 1533 1535 1536 1537 1537 1538 1540 1541 1543 1544 1546 1548 1550 1550 1551 1552 1552 1553 1553 1554 1554 1555 1555 1555 1556 1556 1556 1557 1557 1557 1557 1557 1557 1558 1558 1559 1559 1560 1560 1560 1561 1562 1562 1564 1565 1566 1566 1567 1567 1568 1568 1568 1568 1568 1568 1568 1567 1568 1568 1568 1568 1568 1568 1568 1568 1568 1568 1568 1568 1567 1566 1566 1565
1513 1516 1517 1519 1520 1522 1523 1525 1527 1529 1531 1532 1533 1535 1536 1537 1538 1539 1539 1541 1542 1544 1547 1549 1550 1551 1552 1552 1553 1553 1553 1554 1554 1555 1555 1555 1556 1557 1557 1557 1557 1558 1558 1558 1558 1558 1559 1559 1560 1560 1560 1561 1561 1562 1563 1563 1565 1567 1567 1567 1568 1568 1569 1569 1568 1568 1568 1568 1568 1568 1568 1568 1569 1569 1569 1569 1569 1569 1569 1569 1569 1568 1568 1567 1567
1514 1516 1518 1520 1521 1523 1525 1527 1528 1529 1531 1532 1534 1535 1536 1537 1538 1539 1539 1540 1542 1544 1547 1549 1550 1551 1552 1552 1552 1552 1553 1554 1554 1555 1555 1556 1556 1557 1558 1558 1558 1558 1558 1558 1558 1559 1559 1560 1560 1561 1561 1561 1562 1562 1563 1563 1564 1567 1567 1568 1568 1569 1569 1569 1569 1569 1569 1568 1568 1568 1568 1569 1569 1569 1569 1569 1569 1569 1569 1569 1569 1569 1569 1569 1568
1516 1518 1519 1521 1523 1525 1527 1528 1530 1530 1531 1533 1534 1535 1536 1537 1539 1539 1540 1541 1542 1544 1547 1549 1550 1551 1551 1552 1552 1553 1553 1554 1555 1555 1556 1556 1556 1557 1558 1558 1559 1559 1559 1559 1559 1559 1559 1560 1560 1561 1561 1561 1562 1562 1563 1564 1564 1566 1568 1568 1568 1569 1569 1569 1570 1569 1569 1569 1569 1568 1569 1569 1569 1569 1569 1570 1570 1570 1570 1570 1570 1570 1570 1569 1569
1517 1519 1520 1522 1524 1526 1527 1529 1531 1532 1532 1533 1534 1535 1536 1537 1538 1540 1541 1541 1542 1544 1547 1548 1550 1551 1552 1552 1553 1553 1554 1554 1555 1555 1556 1556 1557 1557 1558 1558 1559 1559 1560 1560 1560 1560 1560 1560 1561 1561 1562 1562 1562 1563 1563 1564 1564 1566 1567 1568 1569 1569 1569 1570 1570 1570 1570 1569 1569 1569 1569 1569 1569 1569 1569 1570 1570 1570 1570 1570 1570 1570 1570 1570 1570
1518 1519 1521 1523 1524 1526 1528 1530 1531 1532 1533 1534 1535 1536 1537 1538 1539 1540 1541 1541 1543 1545 1547 1548 1550 1550 1551 1553 1554 1554 1555 1555 1555 1556 1556 1556 1557 1558 1558 1559 1560 1560 1560 1561 1561 1560 1560 1561 1561 1562 1562 1562 1563 1563 1564 1564 1565 1565 1567 1568 1569 1569 1570 1570 1570 1570 1570 1570 1570 1569 1569 1569 1569 1569 1569 1570 1570 1570 1570 1570 1570 1570 1571 1571 1571
1519 1520 1521 1523 1524 1526 1528 1529 1531 1532 1533 1534 1535 1536 1537 1538 1539 1540 1541 1542 1543 1545 1547 1548 1550 1550 1551 1553 1554 1555 1555 1555 1556 1556 1556 1557 1557 1558 1559 1560 1560 1560 1561 1561 1561 1561 1561 1561 1562 1562 1562 1563 1563 1563 1564 1564 1565 1565 1567 1568 1569 1570 1570 1570 1570 1570 1570 1570 1570 1570 1570 1569 1569 1569 1569 1570 1570 1570 1570 1571 1571 1571 1571 1571 1571
1518 1519 1521 1523 1524 1526 1528 1529 1530 1532 1533 1534 1535 1537 1538 1539 1540 1540 1541 1542 1543 1545 1547 1548 1550 1551 1552 1553 1554 1555 1556 1556 1556 1557 1557 1557 1558 1559 1559 1560 1560 1561 1561 1561 1561 1561 1561 1561 1562 1562 1562 1562 1562 1563 1564 1564 1565 1566 1566 1567 1569 1569 1570 1571 1571 1571 1571 1571 1571 1570 1570 1570 1569 1569 1569 1570 1570 1570 1570 1571 1571 1571 1571 1571 1571
1517 1519 1521 1522 1523 1525 1527 1529 1530 1532 1534 1535 1535 1537 1538 1539 1540 1540 1541 1542 1544 1546 1548 1549 1550 1552 1553 1554 1555 1556 1556 1556 1557 1557 1557 1558 1558 1559 1559 1560 1560 1560 1561 1561 1561 1561 1561 1561 1562 1562 1562 1562 1562 1563 1563 1564 1565 1566 1566 1567 1568 1569 1570 1571 1571 1571 1571 1571 1571 1571 1571 1570 1570 1570 1570 1570 1570 1570 1570 1571 1571 1571 1571 1571 1571
1516 1518 1520 1522 1524 1526 1528 1529 1530 1532 1534 1536 1536 1537 1538 1540 1540 1540 1541 1543 1544 1546 1548 1550 1551 1552 1554 1555 1556 1556 1556 1556 1557 1557 1557 1558 1558 1558 1559 1559 1560 1560 1560 1561 1561 1561 1561 1561 1562 1562 1562 1563 1563 1563 1563 1564 1564 1565 1566 1567 1568 1569 1570 1571 1571 1572 1572 1571 1571 1571 1571 1571 1570 1570 1570 1570 1570 1570 1570 1570 1571 1571 1571 1571 1572
1517 1518 1520 1522 1524 1526 1528 1530 1530 1532 1535 1536 1537 1538 1539 1540 1541 1541 1542 1543 1545 1546 1548 1550 1552 1553 1554 1555 1555 1556 1556 1556 1556 1557 1557 1557 1558 1558 1558 1559 1559 1560 1560 1560 1561 1561 1561 1561 1562 1562 1562 1563 1563 1563 1563 1564 1564 1565 1566 1567 1568 1569 1570 1571 1571 1572 1572 1572 1572 1572 1571 1571 1571 1570 1570 1570 1570 1570 1570 1570 1571 1571 1571 1572 1572
1517 1518 1521 1522 1524 1526 1528 1531 1531 1532 1535 1537 1538 1538 1540 1541 1541 1542 1543 1544 1545 1547 1548 1550 1552 1553 1554 1555 1555 1555 1555 1555 1556 1556 1557 1557 1557 1558 1558 1558 1559 1559 1560 1560 1560 1561 1561 1561 1561 1562 1562 1563 1563 1563 1564 1564 1564 1565 1566 1567 1568 1569 1570 1571 1571 1572 1572 1572 1572 1572 1572 1572 1571 1571 1571 1570 1570 1570 1570 1570 1570 1571 1571 1572 1572
1516 1519 1523 1524 1525 1526 1528 1531 1532 1532 1534 1536 1537 1538 1540 1541 1542 1543 1543 1544 1545 1547 1548 1550 1551 1552 1553 1554 1554 1554 1554 1555 1555 1556 1556 1556 1557 1557 1558 1558 1558 1559 1559 1560 1560 1560 1560 1561 1561 1561 1562 1562 1563 1563 1563 1564 1564 1565 1566 1567 1568 1569 1570 1571 1571 1572 1572 1572 1572 1572 1572 1572 1572 1571 1571 1570 1570 1570 1570 1570 1570 1570 1571 1572 1572
1517 1521 1525 1526 1526 1526 1528 1530 1532 1533 1534 1535 1537 1538 1540 1541 1542 1543 1544 1545 1546 1547 1548 1549 1550 1551 1552 1553 1553 1553 1554 1554 1554 1555 1555 1556 1556 1557 1557 1557 1558 1558 1558 1559 1559 1560 1560 1560 1561 1561 1562 1562 1562 1563 1563 1563 1564 1564 1565 1567 1568 1569 1570 1571 1571 1571 1572 1572 1572 1572 1572 1572 1572 1572 1571 1571 1570 1570 1570 1570 1570 1570 1571 1571 1572
1517 1519 1522 1524 1525 1526 1528 1530 1532 1533 1534 1535 1537 1538 1540 1542 1543 1544 1544 1545 1546 1547 1548 1549 1550 1551 1551 1552 1552 1553 1553 1553 1553 1554 1555 1555 1555 1556 1556 1556 1556 1557 1557 1558 1559 1559 1560 1560 1560 1561 1561 1562 1562 1562 1563 1563 1564 1564 1565 1566 1568 1569 1570 1571 1571 1571 1572 1572 1572 1572 1572 1572 1572 1572 1571 1571 1570 1570 1570 1570 1570 1570 1571 1571 1571
1518 1519 1520 1521 1523 1525 1528 1529 1531 1533 1534 1536 1537 1539 1540 1542 1543 1544 1544 1545 1546 1547 1548 1549 1549 1550 1550 1551 1551 1552 1552 1552 1553 1553 1554 1554 1555 1555 1555 1555 1556 1556 1557 1558 1558 1559 1559 1560 1560 1561 1561 1561 1562 1562 1562 1563 1564 1564 1565 1566 1567 1568 1569 1570 1571 1571 1571 1572 1572 1572 1572 1572 1572 1572 1571 1571 1571 1570 1570 1570 1570 1570 1571 1571 1571
1518 1519 1521 1522 1524 1526 1528 1530 1531 1532 1534 1535 1537 1539 1540 1541 1543 1543 1544 1545 1545 1546 1547 1548 1549 1549 1550 1550 1550 1551 1551 1551 1552 1552 1553 1554 1554 1554 1554 1554 1555 1555 1556 1557 1558 1559 1559 1560 1560 1561 1561 1561 1562 1562 1562 1563 1564 1564 1564 1565 1567 1567 1568 1569 1570 1570 1571 1571 1571 1571 1571 1571 1571 1571 1571 1571 1570 1570 1570 1570 1570 1570 1571 1571 1571
1518 1519 1521 1524 1525 1527 1529 1530 1531 1532 1533 1535 1537 1538 1540 1541 1542 1542 1543 1544 1545 1546 1547 1547 1547 1548 1548 1549 1549 1550 1550 1550 1550 1551 1552 1553 1553 1553 1554 1554 1554 1555 1555 1556 1557 1558 1558 1559 1560 1561 1561 1561 1562 1562 1563 1563 1564 1564 1564 1565 1566 1567 1568 1568 1569 1569 1570 1571 1571 1571 1571 1571 1571 1571 1571 1571 1570 1570 1570 1570 1570 1570 1570 1571 1571
1518 1520 1522 1523 1525 1527 1528 1529 1531 1532 1533 1535 1536 1538 1539 1541 1541 1542 1542 1543 1544 1545 1545 1546 1546 1546 1547 1548 1549 1549 1549 1549 1549 1550 1552 1552 1553 1553 1553 1553 1553 1554 1555 1555 1556 1556 1557 1558 1559 1560 1561 1561 1562 1562 1563 1563 1564 1564 1565 1565 1566 1567 1567 1568 1568 1569 1569 1570 1571 1571 1571 1571 1571 1571 1571 1571 1570 1570 1570 1570 1570 1570 1570 1570 1571
1518 1520 1521 1522 1524 1526 1528 1529 1530 1532 1533 1534 1536 1537 1539 1540 1540 1541 1542 1542 1543 1544 1544 1544 1545 1545 1546 1547 1548 1548 1548 1548 1548 1550 1552 1553 1553 1553 1553 1553 1553 1553 1554 1554 1555 1555 1556 1557 1558 1559 1560 1561 1562 1563 1563 1563 1563 1564 1565 1565 1566 1566 1567 1567 1568 1568 1569 1569 1570 1570 1570 1570 1570 1571 1571 1571 1570 1570 1570 1570 1570 1570 1570 1570 1571
1518 1519 1520 1521 1523 1526 1528 1529 1530 1531 1533 1534 1535 1537 1538 1539 1539 1540 1541 1542 1542 1542 1543 1544 1545 1545 1546 1547 1547 1547 1547 1547 1548 1550 1551 1552 1553 1553 1553 1553 1553 1553 1553 1554 1554 1554 1555 1556 1556 1558 1559 1560 1561 1562 1562 1562 1563 1564 1564 1565 1566 1566 1567 1567 1567 1568 1568 1569 1569 1569 1570 1570 1570 1570 1570 1571 1570 1570 1570 1570 1570 1570 1570 1570 1570
1517 1518 1519 1521 1523 1526 1528 1529 1530 1531 1532 1533 1534 1536 1537 1538 1539 1539 1540 1541 1541 1542 1542 1543 1544 1545 1545 1546 1546 1546 1547 1547 1548 1549 1550 1551 1552 1552 1552 1552 1552 1552 1553 1553 1554 1554 1554 1555 1555 1557 1558 1559 1560 1561 1561 1562 1562 1563 1564 1565 1565 1566 1566 1567 1567 1568 1568 1568 1568 1569 1569 1569 1569 1570 1570 1570 1570 1570 1570 1570 1570 1570 1570 1570 1570
1515 1517 1518 1521 1524 1526 1527 1528 1529 1530 1531 1533 1534 1535 1536 1537 1538 1539 1540 1540 1541 1542 1542 1543 1544 1544 1545 1545 1545 1546 1546 1547 1547 1547 1549 1549 1550 1550 1551 1551 1551 1551 1552 1552 1553 1553 1554 1554 1555 1555 1556 1558 1559 1560 1560 1561 1562 1563 1563 1564 1565 1565 1566 1566 1566 1567 1567 1568 1568 1568 1569 1569 1569 1569 1570 1570 1570 1570 1570 1570 1570 1570 1570 1570 1570
1515 1517 1519 1522 1523 1524 1526 1527 1529 1530 1531 1532 1534 1535 1536 1537 1538 1539 1540 1540 1541 1542 1542 1543 1543 1544 1544 1545 1545 1545 1546 1546 1546 1546 1547 1548 1548 1549 1549 1549 1550 1550 1551 1552 1552 1553 1553 1554 1554 1555 1555 1556 1558 1559 1559 1560 1561 1562 1562 1563 1564 1564 1565 1565 1565 1566 1566 1567 1568 1568 1568 1569 1569 1569 1569 1569 1570 1570 1570 1570 1570 1570 1570 1570 1570
1515 1517 1519 1521 1522 1523 1525 1527 1528 1530 1531 1532 1533 1535 1536 1537 1538 1539 1540 1541 1541 1542 1542 1543 1543 1544 1544 1544 1545 1545 1545 1545 1546 1546 1546 1547 1547 1548 1548 1548 1549 1549 1550 1550 1551 1552 1553 1553 1554 1554 1555 1556 1557 1558 1559 1559 1560 1561 1561 1562 1562 1563 1564 1564 1565 1565 1565 1566 1567 1567 1568 1568 1568 1568 1568 1569 1569 1569 1569 1569 1569 1569 1570 1570 1570
1514 1517 1519 1520 1521 1523 1525 1527 1528 1530 1531 1532 1533 1535 1536 1537 1538 1539 1540 1541 1541 1542 1542 1543 1543 1543 1543 1544 1544 1545 1545 1545 1545 1546 1546 1546 1547 1547 1547 1548 1548 1548 1549 1549 1550 1551 1552 1553 1554 1554 1555 1556 1557 1557 1558 1559 1559 1560 1560 1561 1561 1562 1563 1563 1564 1564 1565 1565 1566 1566 1567 1567 1567 1567 1568 1568 1568 1569 1569 1569 1569 1569 1569 1569 1570
1514 1517 1518 1519 1522 1524 1526 1527 1528 1530 1531 1532 1533 1535 1536 1538 1539 1539 1540 1541 1541 1542 1542 1543 1543 1543 1543 1544 1544 1545 1545 1545 1545 1545 1546 1546 1546 1547 1547 1547 1547 1548 1548 1549 1550 1550 1551 1552 1553 1554 1555 1556 1556 1556 1557 1558 1558 1559 1559 1560 1560 1561 1561 1562 1563 1563 1564 1564 1565 1565 1566 1566 1566 1567 1567 1567 1568 1568 1568 1568 1568 1569 1569 1569 1570
1514 1516 1517 1519 1522 1524 1526 1527 1528 1530 1531 1532 1533 1535 1537 1538 1539 1540 1540 1541 1542 1542 1543 1543 1543 1543 1544 1544 1544 1544 1545 1545 1545 1545 1546 1546 1546 1546 1547 1547 1547 1548 1548 1549 1549 1550 1550 1551 1552 1553 1554 1555 1555 1554 1555 1556 1557 1558 1559 1559 1559 1560 1560 1561 1561 1562 1563 1563 1564 1564 1565 1565 1566 1566 1567 1567 1567 1567 1567 1567 1567 1568 1568 1569 1569
1513 1515 1517 1519 1522 1524 1526 1527 1528 1529 1531 1532 1534 1535 1537 1538 1539 1540 1540 1541 1542 1542 1543 1543 1543 1543 1543 1543 1543 1544 1544 1545 1545 1545 1546 1546 1546 1546 1547 1547 1547 1548 1548 1548 1549 1549 1549 1550 1551 1552 1553 1555 1554 1553 1553 1555 1556 1557 1558 1558 1558 1559 1559 1560 1560 1561 1562 1562 1562 1563 1564 1564 1565 1565 1566 1566 1566 1565 1566 1567 1567 1568 1568 1569 1569
1512 1514 1517 1519 1521 1523 1526 1527 1528 1530 1531 1533 1534 1536 1538 1539 1540 1541 1541 1542 1542 1542 1543 1543 1543 1543 1543 1543 1543 1544 1544 1545 1545 1545 1546 1546 1546 1546 1547 1547 1547 1547 1548 1548 1548 1548 1549 1549 1550 1551 1553 1554 1554 1553 1553 1554 1555 1556 1557 1557 1557 1558 1558 1559 1559 1560 1560 1561 1561 1562 1563 1563 1564 1564 1564 1565 1565 1564 1565 1566 1567 1567 1568 1569 1569
1512 1514 1516 1519 1521 1523 1525 1526 1527 1529 1531 1533 1535 1536 1538 1540 1540 1541 1542 1542 1542 1542 1543 1543 1543 1543 1543 1543 1544 1544 1544 1545 1545 1545 1545 1546 1546 1546 1547 1547 1547 1547 1547 1548 1548 1548 1548 1548 1549 1550 1551 1552 1553 1552 1552 1553 1554 1555 1555 1556 1556 1557 1557 1558 1558 1559 1559 1560 1560 1561 1562 1562 1563 1563 1563 1564 1564 1563 1564 1565 1566 1566 1567 1568 1569
1512 1513 1517 1519 1521 1523 1524 1525 1527 1529 1531 1532 1534 1536 1538 1540 1541 1542 1542 1543 1543 1543 1543 1543 1543 1543 1543 1543 1544 1544 1545 1545 1545 1545 1545 1546 1546 1546 1547 1547 1547 1547 1547 1548 1548 1548 1548 1548 1549 1550 1550 1551 1552 1552 1552 1552 1553 1554 1554 1555 1555 1556 1557 1557 1557 1558 1558 1559 1559 1560 1561 1562 1562 1562 1563 1563 1563 1563 1563 1564 1565 1566 1566 1567 1568
1511 1513 1516 1519 1520 1522 1523 1523 1525 1528 1531 1532 1533 1535 1537 1539 1541 1542 1542 1543 1543 1542 1543 1543 1543 1543 1543 1544 1544 1545 1545 1545 1546 1546 1546 1546 1546 1547 1547 1547 1547 1547 1548 1548 1548 1548 1548 1548 1548 1549 1550 1551 1551 1552 1552 1552 1552 1553 1553 1554 1555 1555 1556 1556 1556 1557 1557 1558 1558 1559 1560 1561 1561 1561 1562 1562 1562 1562 1562 1563 1564 1565 1565 1566 1566
1510 1512 1515 1518 1521 1523 1523 1525 1528 1529 1531 1532 1533 1534 1536 1539 1541 1542 1542 1542 1542 1542 1542 1542 1543 1543 1543 1544 1545 1545 1546 1546 1546 1547 1547 1547 1547 1547 1547 1547 1547 1547 1548 1548 1548 1548 1548 1548 1548 1549 1550 1550 1551 1551 1551 1551 1551 1552 1553 1554 1554 1555 1555 1556 1556 1556 1556 1557 1557 1558 1559 1559 1560 1561 1561 1561 1561 1561 1561 1562 1562 1563 1564 1565 1565
1508 1511 1515 1518 1521 1523 1525 1529 1530 1529 1529 1530 1532 1534 1536 1538 1540 1542 1542 1542 1542 1542 1543 1543 1543 1543 1543 1544 1545 1546 1546 1547 1547 1547 1547 1548 1548 1548 1548 1548 1548 1548 1548 1548 1548 1548 1548 1548 1549 1549 1550 1550 1550 1551 1551 1551 1551 1552 1552 1553 1554 1554 1555 1555 1556 1556 1556 1556 1557 1558 1558 1558 1559 1560 1560 1561 1561 1560 1561 1561 1561 1562 1563 1564 1564
1507 1511 1514 1516 1518 1520 1524 1527 1526 1526 1527 1528 1531 1534 1536 1538 1539 1541 1542 1542 1542 1543 1543 1543 1543 1543 1544 1545 1545 1546 1547 1547 1547 1547 1548 1548 1548 1548 1548 1548 1548 1547 1547 1547 1548 1548 1548 1548 1549 1549 1549 1550 1550 1551 1551 1551 1551 1551 1552 1552 1553 1554 1554 1555 1555 1556 1556 1557 1557 1558 1558 1558 1559 1560 1560 1560 1560 1560 1560 1561 1561 1562 1562 1563 1563
1507 1510 1512 1513 1516 1519 1522 1523 1523 1525 1528 1529 1531 1534 1536 1537 1538 1540 1541 1542 1542 1542 1543 1543 1543 1543 1544 1545 1546 1546 1547 1547 1548 1548 1548 1548 1548 1548 1548 1548 1548 1548 1548 1547 1547 1548 1548 1548 1549 1549 1550 1550 1551 1551 1551 1551 1551 1551 1552 1552 1553 1553 1553 1554 1554 1555 1555 1556 1557 1557 1558 1558 1558 1559 1559 1559 1560 1560 1560 1560 1561 1561 1562 1562 1562
1509 1509 1510 1512 1515 1517 1518 1519 1521 1524 1527 1529 1531 1533 1535 1537 1538 1539 1540 1541 1542 1542 1542 1542 1543 1543 1544 1545 1546 1547 1547 1548 1548 1548 1548 1548 1549 1549 1549 1549 1549 1549 1548 1548 1548 1548 1548 1548 1549 1549 1550 1551 1551 1551 1552 1552 1552 1552 1552 1552 1553 1553 1553 1553 1553 1553 1554 1555 1556 1557 1558 1558 1558 1559 1559 1559 1560 1560 1560 1560 1560 1561 1561 1561 1561
1508 1508 1510 1512 1514 1514 1516 1518 1520 1522 1525 1528 1530 1532 1535 1536 1537 1538 1539 1540 1541 1542 1542 1542 1543 1543 1544 1545 1546 1547 1548 1548 1548 1549 1549 1549 1549 1549 1550 1550 1550 1550 1550 1549 1549 1549 1549 1549 1549 1550 1550 1551 1552 1552 1552 1552 1552 1552 1552 1552 1553 1553 1553 1553 1553 1553 1553 1554 1555 1556 1557 1558 1558 1559 1559 1560 1560 1560 1560 1561 1560 1561 1561 1561 1561